Home   Weather   Groningen   Past weeks

Flag for Netherlands Past Weather in Groningen, Netherlands — Yesterday and Last 2 Weeks

Now
50 °F

Passing clouds.


Feels Like: 46 °F
Forecast: 36 / 58 °F
Wind: 9 mph from Northwest

Location: Groningen Eelde Airport

Current Time: Apr 29, 2017 at 3:48:30 pm

Latest Report: Apr 29, 2017 at 2:55 pm


Visibility: N/A

Pressure: 30.07 "Hg

Humidity: 54%

Dew Point: 34 °F

Location of GroningenLocation

Past Weather in Groningen — Graph

°F

Groningen Temperature Yesterday

Maximum temperature yesterday: 50 °F (at 10:25 am)
Minimum temperature yesterday: 37 °F (at 6:25 am)
Average temperature yesterday: 45 °F

High & Low Weather Summary for the Past Weeks

 TemperatureHumidityPressure
High57 °F (Apr 21, 12:55 pm)100% (Apr 15, 3:55 am)30.63 "Hg (Apr 15, 3:55 am)
Low25 °F (Apr 20, 5:25 am)46% (Apr 19, 12:55 pm)29.62 "Hg (Apr 25, 3:55 am)
Average43 °F78%30.10 "Hg
* Reported Apr 14 2:25 pm — Apr 29 2:25 pm, Groningen, Weather by CustomWeather, © 2017

Note: Actual official high and low records may vary slightly from our data, if they occured in-between our weather recording intervals... More about our weather records

Advertising

Groningen Weather History for the Previous 24 Hours

Scroll right to see more
 ConditionsComfort  
Time TempWeatherWind HumidityBarometerVisibility
2:25 pm
Sat, Apr 29
54 °FBroken clouds.8 mph51%30.07 "HgN/A
1:55 pm52 °FClear.8 mph62%30.07 "HgN/A
1:25 pm52 °FScattered clouds.7 mph58%30.07 "HgN/A
12:55 pm52 °FCool.8 mph47%30.07 "HgN/A
12:25 pm52 °FClear.10 mph50%30.07 "HgN/A
11:55 am50 °FBroken clouds.8 mph58%30.07 "HgN/A
11:25 am50 °FScattered clouds.9 mph58%30.07 "HgN/A
10:55 am50 °FScattered clouds.10 mph62%30.04 "HgN/A
10:25 am48 °FScattered clouds.9 mph66%30.04 "HgN/A
9:25 am46 °FCool.8 mph71%30.04 "HgN/A
8:55 am45 °FQuite cool.6 mph76%30.04 "HgN/A
8:25 am43 °FClear.6 mph81%30.04 "HgN/A
7:55 am37 °FChilly.7 mph93%30.04 "HgN/A
7:25 am34 °FClear.5 mph93%30.01 "HgN/A
6:55 am30 °FChilly.6 mph100%30.01 "HgN/A
6:25 am30 °FChilly.5 mph100%30.01 "HgN/A
5:55 am30 °FChilly.6 mph100%30.01 "HgN/A
5:25 am30 °FChilly.7 mph93%30.01 "HgN/A
4:55 am30 °FChilly.6 mph93%30.01 "HgN/A
4:25 am30 °FChilly.7 mph93%30.01 "HgN/A
3:55 am30 °FClear.6 mph93%30.01 "HgN/A
2:55 am32 °FChilly.6 mph93%30.01 "HgN/A
2:25 am32 °FChilly.6 mph93%30.01 "HgN/A
1:55 am32 °FClear.5 mph93%30.01 "HgN/A
1:25 am36 °FChilly.5 mph93%29.98 "HgN/A
12:55 am36 °FClear.3 mph87%30.01 "HgN/A
12:25 am36 °FChilly.5 mph87%29.98 "HgN/A
11:55 pm
Fri, Apr 28
37 °FPassing clouds.5 mph87%29.98 "HgN/A
11:25 pm37 °FChilly.5 mph81%29.98 "HgN/A
10:55 pm39 °FChilly.5 mph75%29.98 "HgN/A
10:25 pm41 °FQuite cool.5 mph76%29.98 "HgN/A
9:55 pm43 °FClear.7 mph76%29.98 "HgN/A
9:25 pm43 °FClear.7 mph76%29.98 "HgN/A
8:55 pm43 °FClear.6 mph76%29.98 "HgN/A
8:25 pm45 °FPassing clouds.8 mph71%29.95 "HgN/A
7:55 pm46 °FClear.9 mph66%29.95 "HgN/A
7:25 pm46 °FPassing clouds.10 mph71%29.95 "HgN/A
6:55 pm48 °FClear.9 mph66%29.95 "HgN/A
6:25 pm46 °FScattered clouds.13 mph71%29.95 "HgN/A
5:55 pm46 °FScattered clouds.15 mph71%29.92 "HgN/A
5:25 pm50 °FPassing clouds.14 mph62%29.92 "HgN/A
4:55 pm50 °FClear.13 mph67%29.92 "HgN/A
4:25 pm50 °FBroken clouds.13 mph67%29.92 "HgN/A
3:55 pm50 °FScattered clouds.15 mph67%29.92 "HgN/A
3:25 pm50 °FScattered clouds.13 mph67%29.89 "HgN/A
Weather by CustomWeather, © 2017

See weather overviewHow to use our weather pages